FW4702 Weather Reports


Display with metric or nautical units.
time (UTC)temp
F
wind
direction
speed
MPH
gust
MPH
rain 1hr
in
rain 24hr
in
rain mn
in
humidity
%
barometer
mb
20260901175557 91 175 0.0 2.0 0.00 0.00 0.00 59 1020.2
20260901175053 91 0 0.0 3.0 0.00 0.00 0.00 63 1020.2
20260901174603 91 0 0.0 3.0 0.00 0.00 0.00 60 1020.3
20260901174053 90 0 0.0 3.0 0.00 0.00 0.00 58 1020.4
20260901173556 90 0 0.0 3.0 0.00 0.00 0.00 60 1020.5
20260901173055 90 86 0.0 2.0 0.00 0.00 0.00 63 1020.4
20260901172557 89 320 0.0 2.0 0.00 0.00 0.00 62 1020.5
20260901172057 89 0 0.0 2.0 0.00 0.00 0.00 62 1020.6
20260901171605 89 0 0.0 2.0 0.00 0.00 0.00 61 1020.6
20260901171056 89 75 0.0 3.0 0.00 0.00 0.00 62 1020.7
20260901170556 89 0 1.0 3.0 0.00 0.00 0.00 65 1020.7
20260901165556 90 0 1.0 4.0 0.00 0.00 0.00 60 1020.7
20260901165053 90 0 1.0 4.0 0.00 0.00 0.00 61 1020.6
20260901164623 89 0 0.0 4.0 0.00 0.00 0.00 64 1020.7
20260901164053 88 0 0.0 2.0 0.00 0.00 0.00 66 1020.6
20260901163557 88 330 0.0 2.0 0.00 0.00 0.00 69 1020.7
20260901163100 88 0 0.0 2.0 0.00 0.00 0.00 68 1020.7
20260901162556 87 330 0.0 2.0 0.00 0.00 0.00 69 1020.8
20260901162056 87 0 0.0 2.0 0.00 0.00 0.00 71 1021.0
20260901161610 88 0 0.0 3.0 0.00 0.00 0.00 67 1020.9
20260901161057 88 0 0.0 4.0 0.00 0.00 0.00 68 1020.9
20260901160559 88 65 0.0 4.0 0.00 0.00 0.00 68 1020.9
20260901160116 87 73 0.0 3.0 0.00 0.00 0.00 71 1021.0
20260901155556 87 0 0.0 3.0 0.00 0.00 0.00 71 1021.2
20260901155053 87 0 0.0 3.0 0.00 0.00 0.00 71 1021.0
20260901154602 86 0 0.0 0.0 0.00 0.00 0.00 71 1021.1
20260901154057 86 0 0.0 0.0 0.00 0.00 0.00 74 1021.1
20260901153557 86 0 0.0 0.0 0.00 0.00 0.00 73 1021.1
20260901153125 85 0 0.0 0.0 0.00 0.00 0.00 74 1021.2
20260901152556 85 0 0.0 0.0 0.00 0.00 0.00 74 1021.2
20260901152059 85 0 0.0 3.0 0.00 0.00 0.00 74 1021.3
20260901151602 85 0 0.0 3.0 0.00 0.00 0.00 72 1021.4
20260901151058 86 0 0.0 3.0 0.00 0.00 0.00 72 1021.4
20260901150553 85 0 1.0 3.0 0.00 0.00 0.00 74 1021.2
20260901150115 85 0 0.0 1.0 0.00 0.00 0.00 73 1021.1
20260901145554 85 0 0.0 1.0 0.00 0.00 0.00 75 1021.1
20260901145058 84 0 0.0 1.0 0.00 0.00 0.00 76 1021.0
20260901144602 84 0 0.0 1.0 0.00 0.00 0.00 76 1021.1
20260901144053 84 0 0.0 0.0 0.00 0.00 0.00 75 1021.1
20260901143557 83 0 0.0 0.0 0.00 0.00 0.00 79 1021.2
20260901143121 82 0 0.0 0.0 0.00 0.00 0.00 78 1021.3
20260901142558 82 0 0.0 0.0 0.00 0.00 0.00 79 1021.3
20260901142100 82 0 0.0 1.0 0.00 0.00 0.00 79 1021.4
20260901141622 82 0 0.0 1.0 0.00 0.00 0.00 79 1021.4
20260901141054 81 0 0.0 0.0 0.00 0.00 0.00 84 1021.4
20260901140617 81 0 0.0 1.0 0.00 0.00 0.00 84 1021.1
20260901140135 80 0 0.0 1.0 0.00 0.00 0.00 84 1021.0
20260901135556 80 0 0.0 1.0 0.00 0.00 0.00 85 1021.0
20260901135056 80 0 0.0 1.0 0.00 0.00 0.00 86 1021.0
20260901134559 80 0 0.0 1.0 0.00 0.00 0.00 85 1020.9
20260901134056 80 0 0.0 1.0 0.00 0.00 0.00 86 1020.9
20260901133553 79 0 0.0 0.0 0.00 0.00 0.00 88 1020.9
20260901133103 78 0 0.0 0.0 0.00 0.00 0.00 87 1020.9
20260901132559 78 0 0.0 2.0 0.00 0.00 0.00 88 1020.9
20260901132057 78 0 0.0 2.0 0.00 0.00 0.00 91 1021.0
20260901131607 77 0 0.0 2.0 0.00 0.00 0.00 92 1021.1
20260901131056 76 0 0.0 0.0 0.00 0.00 0.00 94 1021.1
20260901130556 75 0 0.0 0.0 0.00 0.00 0.00 95 1021.1
20260901130105 75 0 0.0 0.0 0.00 0.00 0.00 96 1021.1
20260901125557 74 0 0.0 0.0 0.00 0.00 0.00 97 1021.1
20260901125057 74 0 0.0 0.0 0.00 0.00 0.00 97 1021.1
20260901124606 73 0 0.0 0.0 0.00 0.00 0.00 97 1021.1
20260901124056 73 0 0.0 0.0 0.00 0.00 0.00 97 1021.1
20260901123600 73 0 0.0 0.0 0.00 0.00 0.00 97 1020.8
20260901123105 73 0 0.0 0.0 0.00 0.00 0.00 97 1020.9
20260901122557 72 0 0.0 0.0 0.00 0.00 0.00 98 1020.9
20260901122053 72 0 0.0 0.0 0.00 0.00 0.00 97 1020.8
20260901121608 72 0 0.0 0.0 0.00 0.00 0.00 98 1020.7
20260901121053 71 0 0.0 0.0 0.00 0.00 0.00 97 1020.8
20260901120553 71 0 0.0 0.0 0.00 0.00 0.00 97 1020.8
20260901115556 71 0 0.0 0.0 0.00 0.00 0.00 97 1020.6
20260901115059 71 0 0.0 0.0 0.00 0.00 0.00 97 1020.5
20260901114603 71 0 0.0 0.0 0.00 0.00 0.00 98 1020.5
20260901114053 71 0 0.0 0.0 0.00 0.00 0.00 97 1020.5
20260901113556 71 0 0.0 0.0 0.00 0.00 0.00 98 1020.4
20260901113105 70 0 0.0 0.0 0.00 0.00 0.00 97 1020.3
20260901112556 70 0 0.0 0.0 0.00 0.00 0.00 97 1020.4
20260901112057 71 0 0.0 0.0 0.00 0.00 0.00 97 1020.2
20260901111603 71 0 0.0 0.0 0.00 0.00 0.00 97 1020.2
20260901111057 71 0 0.0 0.0 0.00 0.00 0.00 97 1020.2
20260901110557 71 0 0.0 0.0 0.00 0.00 0.00 97 1020.1
20260901110104 71 0 0.0 0.0 0.00 0.00 0.00 97 1020.1
20260901105600 71 0 0.0 0.0 0.00 0.00 0.00 97 1020.1
20260901105101 71 0 0.0 0.0 0.00 0.00 0.00 97 1020.1
20260901104605 71 0 0.0 0.0 0.00 0.00 0.00 97 1020.1
20260901104053 71 0 0.0 0.0 0.00 0.00 0.00 97 1020.1
20260901103554 71 0 0.0 0.0 0.00 0.00 0.00 97 1020.0
20260901103101 71 0 0.0 0.0 0.00 0.00 0.00 97 1020.0
20260901102556 71 0 0.0 0.0 0.00 0.00 0.00 97 1019.9
20260901102057 71 0 0.0 0.0 0.00 0.00 0.00 97 1019.9
20260901101609 71 0 0.0 0.0 0.00 0.00 0.00 97 1019.9
20260901101057 71 0 0.0 0.0 0.00 0.00 0.00 97 1019.8
20260901100557 71 0 0.0 0.0 0.00 0.00 0.00 97 1019.7
20260901100108 71 0 0.0 0.0 0.00 0.00 0.00 97 1019.7
20260901095556 71 0 0.0 0.0 0.00 0.00 0.00 97 1019.6
20260901095056 71 0 0.0 0.0 0.00 0.00 0.00 97 1019.6
20260901094602 71 0 0.0 0.0 0.00 0.00 0.00 97 1019.6
20260901094058 71 0 0.0 0.0 0.00 0.00 0.00 97 1019.5
20260901093557 71 0 0.0 0.0 0.00 0.00 0.00 97 1019.5
20260901093108 71 0 0.0 0.0 0.00 0.00 0.00 97 1019.5
20260901092557 71 0 0.0 0.0 0.00 0.00 0.00 97 1019.5
20260901092057 71 0 0.0 0.0 0.00 0.00 0.00 97 1019.5
20260901091601 71 0 0.0 0.0 0.00 0.00 0.00 97 1019.5
20260901091056 71 0 0.0 0.0 0.00 0.00 0.00 97 1019.4
20260901090558 71 0 0.0 0.0 0.00 0.00 0.00 97 1019.5
20260901090109 71 0 0.0 0.0 0.00 0.00 0.00 97 1019.4
20260901085556 71 0 0.0 0.0 0.00 0.00 0.00 96 1019.4
20260901085058 71 0 0.0 0.0 0.00 0.00 0.00 96 1019.3
20260901084601 71 0 0.0 0.0 0.00 0.00 0.00 96 1019.3
20260901084057 71 0 0.0 0.0 0.00 0.00 0.00 96 1019.2
20260901083557 71 0 0.0 0.0 0.00 0.00 0.00 96 1019.3
20260901083104 71 0 0.0 0.0 0.00 0.00 0.00 96 1019.4
20260901082556 72 0 0.0 0.0 0.00 0.00 0.00 96 1019.3
20260901082057 71 0 0.0 0.0 0.00 0.00 0.00 96 1019.3
20260901081604 71 0 0.0 0.0 0.00 0.00 0.00 96 1019.2
20260901081056 72 0 0.0 0.0 0.00 0.00 0.00 96 1019.4
20260901080556 71 0 0.0 0.0 0.00 0.00 0.00 96 1019.3
20260901080212 72 0 0.0 0.0 0.00 0.00 0.00 96 1019.3
20260901075556 72 0 0.0 0.0 0.00 0.00 0.00 96 1019.3
20260901075057 72 0 0.0 0.0 0.00 0.00 0.00 95 1019.3
20260901074607 72 0 0.0 0.0 0.00 0.00 0.00 96 1019.3
20260901074054 72 0 0.0 0.0 0.00 0.00 0.00 95 1019.3
20260901073553 72 0 0.0 0.0 0.00 0.00 0.00 95 1019.2
20260901073104 72 0 0.0 0.0 0.00 0.00 0.00 95 1019.3
20260901072557 72 0 0.0 0.0 0.00 0.00 0.00 95 1019.3
20260901072103 72 0 0.0 0.0 0.00 0.00 0.00 95 1019.2
20260901071609 72 0 0.0 0.0 0.00 0.00 0.00 95 1019.2
20260901071056 72 0 0.0 0.0 0.00 0.00 0.00 95 1019.2
20260901070556 72 0 0.0 0.0 0.00 0.00 0.00 95 1019.2
20260901070135 72 0 0.0 0.0 0.00 0.00 0.00 95 1019.3
20260901065556 72 0 0.0 0.0 0.00 0.00 0.00 95 1019.3
20260901065056 72 0 0.0 0.0 0.00 0.00 0.00 95 1019.2
20260901064611 72 0 0.0 0.0 0.00 0.00 0.00 95 1019.3
20260901064057 72 0 0.0 0.0 0.00 0.00 0.00 95 1019.3
20260901063552 72 0 0.0 0.0 0.00 0.00 0.00 95 1019.2
20260901063108 72 0 0.0 0.0 0.00 0.00 0.00 95 1019.3
20260901062556 72 0 0.0 0.0 0.00 0.00 0.00 95 1019.2
20260901062057 72 0 0.0 0.0 0.00 0.00 0.00 95 1019.3
20260901061611 72 0 0.0 0.0 0.00 0.00 0.00 95 1019.4
20260901061057 72 0 0.0 0.0 0.00 0.00 0.00 95 1019.4
20260901060557 72 0 0.0 0.0 0.00 0.00 0.00 95 1019.4
20260901060107 72 0 0.0 0.0 0.00 0.00 0.00 95 1019.4
20260901055556 72 0 0.0 0.0 0.00 0.00 0.00 95 1019.5
20260901055053 72 0 0.0 0.0 0.00 0.00 0.00 95 1019.5
20260901054607 72 0 0.0 0.0 0.00 0.00 0.00 95 1019.4
20260901054056 73 0 0.0 0.0 0.00 0.00 0.00 95 1019.5
20260901053556 73 0 0.0 0.0 0.00 0.00 0.00 94 1019.6
20260901053111 73 0 0.0 0.0 0.00 0.00 0.00 94 1019.6
20260901052554 73 0 0.0 0.0 0.00 0.00 0.00 94 1019.5
20260901052058 73 0 0.0 0.0 0.00 0.00 0.00 94 1019.5
20260901051601 73 0 0.0 0.0 0.00 0.00 0.00 94 1019.5
20260901051056 73 0 0.0 0.0 0.00 0.00 0.00 94 1019.5
20260901050557 73 0 0.0 0.0 0.00 0.00 0.00 94 1019.4
20260901050105 73 0 0.0 0.0 0.00 0.00 0.00 94 1019.4
20260901045556 73 0 0.0 0.0 0.00 0.00 0.00 94 1019.5
20260901045058 73 0 0.0 0.0 0.00 0.00 0.00 94 1019.6
20260901044623 73 0 0.0 0.0 0.00 0.00 0.00 94 1019.4
20260901044057 73 0 0.0 0.0 0.00 0.00 0.00 94 1019.5
20260901043557 73 0 0.0 0.0 0.00 0.00 0.00 94 1019.5
20260901043106 73 0 0.0 0.0 0.00 0.00 0.00 94 1019.6
20260901042600 74 0 0.0 0.0 0.00 0.00 0.00 93 1019.5
20260901042056 74 0 0.0 0.0 0.00 0.00 0.00 93 1019.5
20260901041602 74 0 0.0 0.0 0.00 0.00 0.00 93 1019.5
20260901041056 73 0 0.0 0.0 0.00 0.00 0.00 93 1019.4
20260901040556 74 0 0.0 0.0 0.00 0.00 0.00 93 1019.4
20260901040108 74 0 0.0 1.0 0.00 0.00 0.00 93 1019.5
20260901035600 74 0 0.0 1.0 0.00 0.00 0.00 92 1019.4
20260901035100 74 0 0.0 1.0 0.00 0.00 0.00 93 1019.4
20260901034558 74 0 0.0 0.0 0.00 0.00 0.00 93 1019.5
20260901034056 74 0 0.0 0.0 0.00 0.00 0.00 93 1019.4
20260901033557 74 0 0.0 0.0 0.00 0.00 0.00 92 1019.6
20260901033105 74 0 0.0 0.0 0.00 0.00 0.00 93 1019.7
20260901032600 74 0 0.0 0.0 0.00 0.00 0.00 92 1019.7
20260901032057 74 0 0.0 0.0 0.00 0.00 0.00 93 1019.6
20260901031602 74 0 0.0 0.0 0.00 0.00 0.00 93 1019.5
20260901031056 75 0 0.0 0.0 0.00 0.00 0.00 93 1019.6
20260901030557 75 0 0.0 0.0 0.00 0.00 0.00 93 1019.6
20260901030105 75 0 0.0 0.0 0.00 0.00 0.00 93 1019.6
20260901025557 75 0 0.0 0.0 0.00 0.00 0.00 93 1019.6
20260901025057 75 0 0.0 0.0 0.00 0.00 0.00 92 1019.6
20260901024604 75 0 0.0 0.0 0.00 0.00 0.00 92 1019.6
20260901024056 75 0 0.0 0.0 0.00 0.00 0.00 92 1019.6
20260901023556 75 0 0.0 0.0 0.00 0.00 0.00 92 1019.6
20260901023114 75 0 0.0 0.0 0.00 0.00 0.00 92 1019.5
20260901022556 75 0 0.0 0.0 0.00 0.00 0.00 92 1019.4
20260901022056 75 0 0.0 0.0 0.00 0.00 0.00 92 1019.4
20260901021614 76 0 0.0 0.0 0.00 0.00 0.00 92 1019.5
20260901021100 76 0 0.0 0.0 0.00 0.00 0.00 91 1019.4
20260901020557 76 0 0.0 0.0 0.00 0.00 0.00 91 1019.3
20260901020109 76 0 0.0 0.0 0.00 0.00 0.00 91 1019.3
20260901015556 76 0 0.0 0.0 0.00 0.00 0.00 91 1019.2
20260901015125 76 0 0.0 0.0 0.00 0.00 0.00 91 1019.2
20260901014558 76 0 0.0 0.0 0.00 0.00 0.00 91 1019.1
20260901014057 76 0 0.0 0.0 0.00 0.00 0.00 91 1019.0
20260901013558 76 0 0.0 0.0 0.00 0.00 0.00 91 1019.1
20260901013120 76 0 0.0 0.0 0.00 0.00 0.00 91 1019.0
20260901012556 76 0 0.0 0.0 0.00 0.00 0.00 91 1019.0
20260901012056 77 0 0.0 0.0 0.00 0.00 0.00 91 1018.9
20260901011605 77 0 0.0 0.0 0.00 0.00 0.00 91 1018.9
20260901011057 77 0 0.0 0.0 0.00 0.00 0.00 90 1018.9
20260901010557 77 0 0.0 0.0 0.00 0.00 0.00 90 1018.7
20260901010058 77 0 0.0 0.0 0.00 0.00 0.00 90 1018.7
20260901005558 78 0 0.0 0.0 0.00 0.00 0.00 90 1018.7
20260901005058 78 0 0.0 0.0 0.00 0.00 0.00 90 1018.5
20260901004605 78 0 0.0 0.0 0.00 0.00 0.00 89 1018.5
20260901004056 78 0 0.0 0.0 0.00 0.00 0.00 89 1018.4
20260901003557 78 0 0.0 0.0 0.00 0.00 0.00 89 1018.3
20260901003101 79 0 0.0 0.0 0.00 0.00 0.00 89 1018.2
20260901002557 79 0 0.0 0.0 0.00 0.00 0.00 88 1018.3
20260901002056 79 0 0.0 0.0 0.00 0.00 0.00 88 1018.4
20260901001606 80 0 0.0 0.0 0.00 0.00 0.00 88 1018.4
20260901001058 80 0 0.0 0.0 0.00 0.00 0.00 88 1018.5
20260901000556 80 0 0.0 0.0 0.00 0.00 0.00 87 1018.5
20260901000103 80 0 0.0 0.0 0.00 0.00 0.00 86 1018.4
20260831235556 81 0 0.0 0.0 0.00 0.00 0.00 86 1018.4
20260831235100 81 0 0.0 0.0 0.00 0.00 0.00 85 1018.5
20260831234600 82 0 0.0 0.0 0.00 0.00 0.00 84 1018.6
20260831234057 82 0 0.0 0.0 0.00 0.00 0.00 81 1018.5
20260831233557 83 0 0.0 1.0 0.00 0.00 0.00 81 1018.6
20260831233106 83 0 0.0 1.0 0.00 0.00 0.00 80 1018.6
20260831232556 84 0 0.0 1.0 0.00 0.00 0.00 79 1018.6
20260831232057 85 0 0.0 2.0 0.00 0.00 0.00 76 1018.6
20260831231623 86 0 0.0 2.0 0.00 0.00 0.00 70 1018.5
20260831231056 87 197 0.0 2.0 0.00 0.00 0.00 68 1018.6
20260831230556 87 197 1.0 2.0 0.00 0.00 0.00 69 1018.6
20260831225556 87 197 1.0 2.0 0.00 0.00 0.00 69 1018.7
20260831225055 87 197 0.0 2.0 0.00 0.00 0.00 69 1018.6
20260831224642 88 197 0.0 2.0 0.00 0.00 0.00 67 1018.7
20260831224056 87 197 1.0 2.0 0.00 0.00 0.00 70 1018.8
20260831223557 87 197 0.0 1.0 0.00 0.00 0.00 71 1019.0
20260831223102 88 0 0.0 2.0 0.00 0.00 0.00 69 1019.0
20260831222556 88 0 0.0 2.0 0.00 0.00 0.00 67 1019.0
20260831222058 88 197 1.0 2.0 0.00 0.00 0.00 64 1019.0
20260831221615 88 219 0.0 2.0 0.00 0.00 0.00 66 1018.9
20260831221056 88 219 1.0 2.0 0.00 0.00 0.00 65 1019.1
20260831220556 88 193 0.0 2.0 0.00 0.00 0.00 67 1018.9
20260831220100 88 173 0.0 2.0 0.00 0.00 0.00 67 1019.0
20260831215557 88 185 0.0 3.0 0.00 0.00 0.00 65 1019.1
20260831215058 88 0 1.0 3.0 0.00 0.00 0.00 65 1019.1
20260831214606 89 148 0.0 3.0 0.00 0.00 0.00 62 1019.1
20260831214058 88 0 0.0 3.0 0.00 0.00 0.00 67 1019.2
20260831213556 88 0 1.0 3.0 0.00 0.00 0.00 66 1019.1
20260831213101 89 0 0.0 2.0 0.00 0.00 0.00 64 1019.0
20260831212557 89 245 0.0 2.0 0.00 0.00 0.00 63 1019.1
20260831212058 89 277 1.0 3.0 0.00 0.00 0.00 60 1019.1
20260831211608 89 192 1.0 3.0 0.00 0.00 0.00 64 1019.1
20260831211057 89 0 1.0 3.0 0.00 0.00 0.00 62 1019.2
20260831210556 89 184 0.0 3.0 0.00 0.00 0.00 63 1019.2
20260831210107 89 0 1.0 2.0 0.00 0.00 0.00 60 1019.3
20260831205556 89 0 0.0 2.0 0.00 0.00 0.00 62 1019.2
20260831205056 89 0 0.0 4.0 0.00 0.00 0.00 62 1019.2
20260831204606 89 208 1.0 4.0 0.00 0.00 0.00 61 1019.3
20260831204059 90 0 1.0 3.0 0.00 0.00 0.00 62 1019.3
20260831203556 89 194 0.0 3.0 0.00 0.00 0.00 67 1019.4
20260831203101 89 222 1.0 3.0 0.00 0.00 0.00 63 1019.4
20260831202556 89 0 1.0 3.0 0.00 0.00 0.00 58 1019.5
20260831202057 90 228 1.0 3.0 0.00 0.00 0.00 61 1019.6
20260831201601 89 196 1.0 3.0 0.00 0.00 0.00 61 1019.6
20260831201057 89 0 0.0 2.0 0.00 0.00 0.00 64 1019.7
20260831200557 90 0 0.0 2.0 0.00 0.00 0.00 60 1019.7
20260831200108 89 182 0.0 2.0 0.00 0.00 0.00 62 1019.8
20260831195559 90 182 0.0 2.0 0.00 0.00 0.00 61 1019.8
20260831195056 90 182 0.0 2.0 0.00 0.00 0.00 58 1020.0
20260831194618 89 0 0.0 3.0 0.00 0.00 0.00 60 1019.9
20260831194057 89 84 0.0 3.0 0.00 0.00 0.00 62 1020.0
20260831193557 89 0 0.0 4.0 0.00 0.00 0.00 60 1020.1
20260831193103 90 26 0.0 4.0 0.00 0.00 0.00 61 1020.0
20260831192556 90 0 0.0 4.0 0.00 0.00 0.00 58 1020.1
20260831192057 90 0 0.0 4.0 0.00 0.00 0.00 60 1020.1
20260831191556 90 0 1.0 4.0 0.00 0.00 0.00 60 1020.3
20260831191058 89 0 0.0 3.0 0.00 0.00 0.00 64 1020.3
20260831190559 89 0 0.0 0.0 0.00 0.00 0.00 61 1020.2
20260831190135 89 0 0.0 0.0 0.00 0.00 0.00 61 1020.3
20260831185557 89 0 0.0 0.0 0.00 0.00 0.00 66 1020.4
20260831185056 88 0 0.0 0.0 0.00 0.00 0.00 65 1020.5
20260831184603 88 0 0.0 0.0 0.00 0.00 0.00 66 1020.6
20260831184056 88 0 0.0 0.0 0.00 0.00 0.00 65 1020.7
20260831183557 88 0 0.0 0.0 0.00 0.00 0.00 65 1020.7
20260831183102 88 0 0.0 0.0 0.00 0.00 0.00 67 1020.8
20260831182557 88 0 0.0 0.0 0.00 0.00 0.00 65 1020.8
20260831182101 88 0 0.0 0.0 0.00 0.00 0.00 68 1020.9
20260831181609 88 0 0.0 0.0 0.00 0.00 0.00 69 1020.9
20260831181057 88 0 0.0 0.0 0.00 0.00 0.00 69 1020.9
20260831180556 88 0 0.0 0.0 0.00 0.00 0.00 73 1020.9
20260831180105 88 0 0.0 0.0 0.00 0.00 0.00 70 1021.0